Hyannis, MA

11:16 AM EDT on April 25, 2018 (GMT -0400)
Barnstable Municipal-Boardman-Polando Field

Weather History for KHYA - January, 2013

Change the Weather History Date:

Tuesday, January 29, 2013

  Actual Average Record
Temperature  
Mean Temperature 35 °F -  
Max Temperature 37 °F 38 °F 57 °F (2002)
Min Temperature 33 °F 22 °F 1 °F (1955)
Degree Days  
Heating Degree Days 30    
Moisture  
Dew Point 34 °F    
Average Humidity 98    
Maximum Humidity 100    
Minimum Humidity 92    
Precipitation  
Precipitation 0.03 in - - ()
Sea Level Pressure  
Sea Level Pressure 30.09 in    
Wind  
Wind Speed 2 mph (NNW)    
Max Wind Speed 8 mph    
Max Gust Speed -    
Visibility 3 miles    
Events Fog , Rain    
Averages and records for this station are not official NWS values.
T = Trace of Precipitation, MM = Missing Value Source: NWS Daily Summary

Daily Weather History Graph

Daily Weather History Graph

Search for Another Location

Airport or City:

Astronomy

Jan. 29, 2013 Rise Set
Actual Time 6:55 AM EST 4:53 PM EST
Civil Twilight 6:26 AM EST 5:22 PM EST
Nautical Twilight 5:52 AM EST 5:56 PM EST
Astronomical Twilight 5:20 AM EST 6:29 PM EST
Moon 7:49 PM EST (1/29) 7:48 AM EST (1/29)
Length of Visible Light 10h 56m
Length of Day
9h 57m
Waning Gibbous, 94% of the Moon is Illuminated
Jan 29
Waning Gibbous
Feb 3
Last Quarter
Feb 10
New
Feb 17
First Quarter
Feb 25
Full

Hourly Weather History & Observations

Time (EST) Temp. Windchill Dew Point Humidity Pressure Visibility Wind Dir Wind Speed Gust Speed Precip Events Conditions
12:19 AM 33.8 °F - 32.0 °F 93% 29.98 in 1.8 mi Calm Calm - N/A   Overcast
12:26 AM 33.8 °F - 33.8 °F 100% 29.97 in 2.0 mi Calm Calm - N/A   Overcast
12:41 AM 33.8 °F - 32.0 °F 93% 29.97 in 2.0 mi Calm Calm - N/A   Overcast
12:56 AM 33.1 °F - 32.0 °F 96% 29.98 in 2.0 mi Calm Calm - N/A   Overcast
1:40 AM 33.8 °F - 32.0 °F 93% 29.99 in 3.0 mi Calm Calm - 0.00 in Rain Light Rain
1:56 AM 33.1 °F - 32.0 °F 96% 30.00 in 4.0 mi Calm Calm - 0.00 in Rain Light Rain
2:27 AM 33.8 °F 30.8 °F 32.0 °F 93% 29.99 in 2.0 mi North 3.5 mph - N/A   Overcast
2:34 AM 33.8 °F - 32.0 °F 93% 29.99 in 1.8 mi Calm Calm - N/A   Overcast
2:56 AM 33.1 °F - 33.1 °F 100% 30.00 in 1.0 mi Calm Calm - N/A   Mist
3:05 AM 33.8 °F - 33.8 °F 100% 30.00 in 0.8 mi Calm Calm - N/A   Mist
3:56 AM 33.1 °F 30.0 °F 32.0 °F 96% 30.01 in 1.0 mi NNW 3.5 mph - N/A   Mist
4:04 AM 33.8 °F 30.8 °F 33.8 °F 100% 30.00 in 0.8 mi North 3.5 mph - N/A   Overcast
4:29 AM 33.8 °F 29.6 °F 33.8 °F 100% 30.01 in 0.8 mi NNW 4.6 mph - N/A   Mist
4:56 AM 34.0 °F 31.0 °F 34.0 °F 100% 30.03 in 0.5 mi NNW 3.5 mph - N/A Fog Fog
5:23 AM 33.8 °F 30.8 °F 33.8 °F 100% 30.03 in 1.8 mi NNW 3.5 mph - N/A   Overcast
5:45 AM 33.8 °F 28.6 °F 33.8 °F 100% 30.04 in 3.0 mi NNW 5.8 mph - N/A   Overcast
5:56 AM 34.0 °F 28.8 °F 33.1 °F 96% 30.05 in 5.0 mi NNW 5.8 mph - N/A   Overcast
6:16 AM 33.8 °F 29.6 °F 33.8 °F 100% 30.05 in 2.5 mi NNW 4.6 mph - N/A   Overcast
6:56 AM 34.0 °F 29.8 °F 33.1 °F 96% 30.06 in 7.0 mi NNW 4.6 mph - N/A   Overcast
7:56 AM 33.1 °F 26.9 °F 33.1 °F 100% 30.10 in 6.0 mi NW 6.9 mph - N/A   Overcast
8:14 AM 33.8 °F 27.7 °F 33.8 °F 100% 30.10 in 7.0 mi NNW 6.9 mph - N/A   Overcast
8:56 AM 34.0 °F 28.0 °F 33.1 °F 96% 30.12 in 6.0 mi NNW 6.9 mph - N/A   Overcast
9:17 AM 33.8 °F 27.0 °F 33.8 °F 100% 30.12 in 7.0 mi NNW 8.1 mph - N/A   Overcast
9:51 AM 33.8 °F 27.7 °F 33.8 °F 100% 30.12 in 6.0 mi North 6.9 mph - N/A   Overcast
9:56 AM 34.0 °F 28.0 °F 33.1 °F 96% 30.13 in 6.0 mi North 6.9 mph - N/A   Overcast
10:56 AM 35.1 °F 30.1 °F 33.1 °F 92% 30.14 in 7.0 mi NNW 5.8 mph - N/A   Overcast
11:56 AM 36.0 °F 31.1 °F 34.0 °F 93% 30.14 in 4.0 mi NNW 5.8 mph - N/A   Overcast
12:56 PM 36.0 °F 31.1 °F 35.1 °F 97% 30.13 in 3.0 mi North 5.8 mph - N/A   Overcast
1:33 PM 35.6 °F 30.7 °F 35.6 °F 100% 30.13 in 1.2 mi NNW 5.8 mph - N/A   Overcast
1:46 PM 37.4 °F 33.8 °F 35.6 °F 93% 30.12 in 1.2 mi NNW 4.6 mph - N/A   Overcast
1:56 PM 37.0 °F 33.3 °F 36.0 °F 96% 30.13 in 1.5 mi NNW 4.6 mph - N/A   Overcast
2:56 PM 36.0 °F 32.1 °F 36.0 °F 100% 30.16 in 1.5 mi NW 4.6 mph - N/A   Overcast
3:56 PM 36.0 °F 33.3 °F 35.1 °F 97% 30.16 in 1.0 mi NNW 3.5 mph - N/A   Overcast
4:56 PM 35.1 °F - 35.1 °F 100% 30.17 in 2.0 mi Calm Calm - N/A   Overcast
5:23 PM 35.6 °F - 35.6 °F 100% 30.16 in 1.2 mi Calm Calm - N/A   Overcast
5:56 PM 35.1 °F - 35.1 °F 100% 30.18 in 1.0 mi Calm Calm - N/A   Overcast
6:56 PM 35.1 °F - 34.0 °F 96% 30.18 in 1.2 mi Calm Calm - N/A   Overcast
7:09 PM 35.6 °F - 35.6 °F 100% 30.16 in 0.8 mi Calm Calm - N/A   Overcast
7:56 PM 35.1 °F - 35.1 °F 100% 30.20 in 0.5 mi Calm Calm - N/A Fog Fog
8:18 PM 35.6 °F - 35.6 °F 100% 30.18 in 0.5 mi Calm Calm - N/A Fog Fog
8:32 PM 35.6 °F 32.8 °F 35.6 °F 100% 30.18 in 1.8 mi SSE 3.5 mph - N/A   Overcast
8:35 PM 35.6 °F 31.7 °F 35.6 °F 100% 30.17 in 3.0 mi SSE 4.6 mph - N/A   Overcast
8:56 PM 36.0 °F 33.3 °F 36.0 °F 100% 30.19 in 10.0 mi Variable 3.5 mph - N/A   Overcast
9:56 PM 36.0 °F - 36.0 °F 100% 30.18 in 10.0 mi Calm Calm - N/A   Overcast
10:56 PM 37.0 °F 32.4 °F 36.0 °F 96% 30.15 in 10.0 mi SE 5.8 mph - 0.00 in   Overcast
11:56 PM 37.9 °F 32.7 °F 36.0 °F 93% 30.15 in 6.0 mi SE 6.9 mph - 0.03 in Rain Light Rain